| time (UTC) | temp F | wind direction | speed knots | gust knots | rain 1hr in | rain 24hr in | rain mn in | humidity % | barometer mb |
| 20260510153528 | 57 | 348 | 6.1 | 9.6 | 0.00 | 0.00 | 0.00 | 58 | 1018.7 |
| 20260510153043 | 57 | 355 | 2.6 | 10.4 | 0.00 | 0.00 | 0.00 | 58 | 1018.7 |
| 20260510152527 | 57 | 11 | 6.1 | 10.4 | 0.00 | 0.00 | 0.00 | 56 | 1018.6 |
| 20260510152027 | 57 | 355 | 2.6 | 10.4 | 0.00 | 0.00 | 0.00 | 62 | 1018.8 |
| 20260510151545 | 56 | 352 | 5.2 | 9.6 | 0.00 | 0.00 | 0.00 | 57 | 1018.6 |
| 20260510151027 | 56 | 321 | 4.3 | 7.8 | 0.00 | 0.00 | 0.00 | 59 | 1018.6 |
| 20260510150528 | 56 | 331 | 3.5 | 8.7 | 0.00 | 0.00 | 0.00 | 59 | 1018.5 |
| 20260510150049 | 56 | 10 | 6.1 | 8.7 | 0.00 | 0.00 | 0.00 | 58 | 1018.4 |
| 20260510145527 | 55 | 28 | 3.5 | 9.6 | 0.00 | 0.00 | 0.00 | 58 | 1018.4 |
| 20260510145029 | 55 | 28 | 4.3 | 11.3 | 0.00 | 0.00 | 0.00 | 60 | 1018.4 |
| 20260510144557 | 55 | 22 | 4.3 | 11.3 | 0.00 | 0.00 | 0.00 | 61 | 1018.5 |
| 20260510144029 | 54 | 341 | 7.0 | 11.3 | 0.00 | 0.00 | 0.00 | 56 | 1018.4 |
| 20260510143528 | 54 | 40 | 7.8 | 12.2 | 0.00 | 0.00 | 0.00 | 58 | 1018.4 |
| 20260510143047 | 54 | 22 | 7.8 | 12.2 | 0.00 | 0.00 | 0.00 | 57 | 1018.3 |
| 20260510142527 | 54 | 39 | 6.1 | 12.2 | 0.00 | 0.00 | 0.00 | 60 | 1018.3 |
| 20260510142028 | 54 | 37 | 7.0 | 12.2 | 0.00 | 0.00 | 0.00 | 59 | 1018.2 |
| 20260510141547 | 54 | 18 | 6.1 | 12.2 | 0.00 | 0.00 | 0.00 | 61 | 1018.3 |
| 20260510141030 | 53 | 360 | 6.1 | 12.2 | 0.00 | 0.00 | 0.00 | 62 | 1018.4 |
| 20260510140529 | 53 | 35 | 7.8 | 12.2 | 0.00 | 0.00 | 0.00 | 61 | 1018.2 |
| 20260510140046 | 53 | 5 | 7.8 | 13.9 | 0.00 | 0.00 | 0.00 | 62 | 1018.2 |
| 20260510135530 | 53 | 338 | 8.7 | 13.9 | 0.00 | 0.00 | 0.00 | 60 | 1018.2 |
| 20260510135028 | 53 | 347 | 7.0 | 13.9 | 0.00 | 0.00 | 0.00 | 63 | 1018.3 |
| 20260510134601 | 53 | 22 | 6.1 | 10.4 | 0.00 | 0.00 | 0.00 | 68 | 1018.2 |
| 20260510134029 | 53 | 10 | 5.2 | 11.3 | 0.00 | 0.00 | 0.00 | 67 | 1018.2 |
| 20260510133527 | 52 | 44 | 6.1 | 11.3 | 0.00 | 0.00 | 0.00 | 65 | 1018.2 |
| 20260510133042 | 52 | 17 | 7.8 | 11.3 | 0.00 | 0.00 | 0.00 | 64 | 1018.1 |
| 20260510132527 | 52 | 360 | 6.1 | 11.3 | 0.00 | 0.00 | 0.00 | 68 | 1018.1 |
| 20260510132028 | 52 | 14 | 6.1 | 11.3 | 0.00 | 0.00 | 0.00 | 69 | 1018.1 |
| 20260510131540 | 51 | 19 | 6.1 | 11.3 | 0.00 | 0.00 | 0.00 | 68 | 1017.9 |
| 20260510131027 | 51 | 15 | 6.1 | 11.3 | 0.00 | 0.00 | 0.00 | 71 | 1017.8 |
| 20260510130528 | 50 | 9 | 5.2 | 11.3 | 0.00 | 0.00 | 0.00 | 72 | 1017.9 |
| 20260510130040 | 50 | 26 | 5.2 | 9.6 | 0.00 | 0.00 | 0.00 | 73 | 1017.7 |
| 20260510125527 | 50 | 23 | 3.5 | 8.7 | 0.00 | 0.00 | 0.00 | 75 | 1017.7 |
| 20260510125031 | 50 | 39 | 5.2 | 9.6 | 0.00 | 0.00 | 0.00 | 76 | 1017.5 |
| 20260510124552 | 50 | 9 | 6.1 | 9.6 | 0.00 | 0.00 | 0.00 | 75 | 1017.4 |
| 20260510124028 | 49 | 15 | 5.2 | 9.6 | 0.00 | 0.00 | 0.00 | 76 | 1017.3 |
| 20260510123530 | 49 | 5 | 6.1 | 9.6 | 0.00 | 0.00 | 0.00 | 75 | 1017.3 |
| 20260510123042 | 49 | 17 | 6.1 | 9.6 | 0.00 | 0.00 | 0.00 | 77 | 1017.3 |
| 20260510122527 | 49 | 360 | 6.1 | 10.4 | 0.00 | 0.00 | 0.00 | 78 | 1017.1 |
| 20260510122028 | 48 | 355 | 7.0 | 10.4 | 0.00 | 0.00 | 0.00 | 79 | 1017.0 |
| 20260510121541 | 48 | 19 | 4.3 | 9.6 | 0.00 | 0.00 | 0.00 | 81 | 1016.8 |
| 20260510121028 | 47 | 351 | 5.2 | 10.4 | 0.00 | 0.00 | 0.00 | 81 | 1016.8 |
| 20260510120531 | 47 | 5 | 3.5 | 10.4 | 0.00 | 0.00 | 0.00 | 81 | 1016.8 |
| 20260510120042 | 47 | 5 | 6.1 | 10.4 | 0.00 | 0.00 | 0.00 | 81 | 1016.8 |
| 20260510115527 | 47 | 348 | 5.2 | 9.6 | 0.00 | 0.00 | 0.00 | 81 | 1016.6 |
| 20260510115029 | 47 | 345 | 4.3 | 9.6 | 0.00 | 0.00 | 0.00 | 82 | 1016.6 |
| 20260510114541 | 47 | 324 | 5.2 | 8.7 | 0.00 | 0.00 | 0.00 | 83 | 1016.5 |
| 20260510114027 | 47 | 355 | 3.5 | 9.6 | 0.00 | 0.00 | 0.00 | 83 | 1016.4 |
| 20260510113529 | 47 | 355 | 5.2 | 9.6 | 0.00 | 0.00 | 0.00 | 83 | 1016.2 |
| 20260510113045 | 47 | 336 | 5.2 | 8.7 | 0.00 | 0.00 | 0.00 | 83 | 1016.0 |
| 20260510112528 | 47 | 337 | 4.3 | 8.7 | 0.00 | 0.00 | 0.00 | 84 | 1016.0 |
| 20260510112028 | 47 | 355 | 4.3 | 7.8 | 0.00 | 0.00 | 0.00 | 85 | 1015.8 |
| 20260510111553 | 47 | 13 | 4.3 | 7.8 | 0.00 | 0.00 | 0.00 | 85 | 1015.8 |
| 20260510111027 | 47 | 352 | 3.5 | 7.8 | 0.00 | 0.00 | 0.00 | 85 | 1015.8 |
| 20260510110526 | 47 | 346 | 4.3 | 7.8 | 0.00 | 0.00 | 0.00 | 85 | 1015.6 |
| 20260510110041 | 47 | 5 | 4.3 | 8.7 | 0.00 | 0.00 | 0.00 | 85 | 1015.4 |
| 20260510105528 | 47 | 360 | 4.3 | 9.6 | 0.00 | 0.00 | 0.00 | 85 | 1015.4 |
| 20260510105027 | 47 | 352 | 5.2 | 9.6 | 0.00 | 0.00 | 0.00 | 85 | 1015.2 |
| 20260510104554 | 47 | 343 | 4.3 | 8.7 | 0.00 | 0.00 | 0.00 | 86 | 1015.2 |
| 20260510104026 | 47 | 350 | 4.3 | 8.7 | 0.00 | 0.00 | 0.00 | 86 | 1015.0 |
| 20260510103527 | 47 | 347 | 3.5 | 8.7 | 0.00 | 0.00 | 0.00 | 86 | 1014.8 |
| 20260510103038 | 47 | 5 | 3.5 | 8.7 | 0.00 | 0.00 | 0.00 | 86 | 1014.8 |
| 20260510102527 | 47 | 355 | 4.3 | 8.7 | 0.00 | 0.00 | 0.00 | 86 | 1014.4 |
| 20260510102026 | 47 | 355 | 4.3 | 8.7 | 0.00 | 0.00 | 0.00 | 87 | 1014.1 |
| 20260510101545 | 46 | 350 | 4.3 | 8.7 | 0.00 | 0.00 | 0.00 | 88 | 1014.1 |
| 20260510101028 | 46 | 343 | 3.5 | 7.0 | 0.00 | 0.00 | 0.00 | 89 | 1014.2 |
| 20260510100530 | 46 | 348 | 2.6 | 7.0 | 0.00 | 0.00 | 0.00 | 89 | 1014.2 |
| 20260510100042 | 46 | 351 | 1.7 | 4.3 | 0.00 | 0.00 | 0.00 | 90 | 1014.1 |
| 20260510095527 | 45 | 355 | 2.6 | 4.3 | 0.00 | 0.00 | 0.00 | 90 | 1013.9 |
| 20260510095028 | 45 | 355 | 1.7 | 4.3 | 0.00 | 0.00 | 0.00 | 90 | 1014.0 |
| 20260510094543 | 45 | 9 | 0.9 | 2.6 | 0.00 | 0.00 | 0.00 | 90 | 1013.9 |
| 20260510094027 | 45 | 0 | 0.0 | 1.7 | 0.00 | 0.00 | 0.00 | 90 | 1013.9 |
| 20260510093527 | 45 | 9 | 0.0 | 1.7 | 0.00 | 0.00 | 0.00 | 90 | 1014.0 |
| 20260510093041 | 44 | 0 | 0.0 | 1.7 | 0.00 | 0.00 | 0.00 | 90 | 1013.8 |
| 20260510092527 | 44 | 9 | 0.9 | 1.7 | 0.00 | 0.00 | 0.00 | 90 | 1013.8 |
| 20260510092027 | 44 | 9 | 0.0 | 1.7 | 0.00 | 0.00 | 0.00 | 89 | 1013.6 |
| 20260510091547 | 44 | 0 | 0.0 | 1.7 | 0.00 | 0.00 | 0.00 | 89 | 1013.6 |
| 20260510091026 | 44 | 9 | 0.0 | 1.7 | 0.00 | 0.00 | 0.00 | 89 | 1013.5 |
| 20260510090528 | 44 | 0 | 0.0 | 1.7 | 0.00 | 0.00 | 0.00 | 89 | 1013.4 |
| 20260510090046 | 44 | 9 | 0.9 | 1.7 | 0.00 | 0.00 | 0.00 | 89 | 1013.3 |
| 20260510085528 | 44 | 9 | 0.9 | 1.7 | 0.00 | 0.00 | 0.00 | 88 | 1013.3 |
| 20260510085028 | 44 | 9 | 0.9 | 1.7 | 0.00 | 0.00 | 0.00 | 88 | 1013.2 |
| 20260510084543 | 44 | 9 | 0.9 | 2.6 | 0.00 | 0.00 | 0.00 | 88 | 1013.1 |
| 20260510084028 | 45 | 9 | 0.9 | 2.6 | 0.00 | 0.00 | 0.00 | 88 | 1013.0 |
| 20260510083532 | 45 | 9 | 0.9 | 1.7 | 0.00 | 0.00 | 0.00 | 88 | 1012.9 |
| 20260510083041 | 45 | 0 | 0.0 | 1.7 | 0.00 | 0.00 | 0.00 | 88 | 1013.0 |
| 20260510082527 | 45 | 9 | 0.0 | 1.7 | 0.00 | 0.00 | 0.00 | 87 | 1012.8 |
| 20260510082027 | 45 | 9 | 0.9 | 1.7 | 0.00 | 0.00 | 0.00 | 87 | 1012.9 |
| 20260510081545 | 46 | 9 | 0.0 | 1.7 | 0.00 | 0.00 | 0.00 | 87 | 1012.9 |
| 20260510081029 | 46 | 0 | 0.0 | 2.6 | 0.00 | 0.00 | 0.00 | 87 | 1012.8 |
| 20260510080530 | 46 | 9 | 0.9 | 2.6 | 0.00 | 0.00 | 0.00 | 87 | 1012.9 |
| 20260510080041 | 46 | 9 | 0.9 | 2.6 | 0.00 | 0.00 | 0.00 | 86 | 1012.8 |
| 20260510075527 | 46 | 9 | 0.9 | 2.6 | 0.00 | 0.00 | 0.00 | 86 | 1012.7 |
| 20260510075027 | 47 | 9 | 0.9 | 1.7 | 0.00 | 0.00 | 0.00 | 84 | 1012.6 |
| 20260510074543 | 47 | 9 | 0.9 | 1.7 | 0.00 | 0.00 | 0.00 | 84 | 1012.5 |
| 20260510074027 | 47 | 9 | 0.0 | 0.9 | 0.00 | 0.00 | 0.00 | 83 | 1012.3 |
| 20260510073530 | 47 | 0 | 0.0 | 0.9 | 0.00 | 0.00 | 0.00 | 82 | 1012.2 |
| 20260510073044 | 48 | 0 | 0.0 | 2.6 | 0.00 | 0.00 | 0.00 | 81 | 1012.1 |
| 20260510072528 | 48 | 0 | 0.0 | 2.6 | 0.00 | 0.00 | 0.00 | 81 | 1011.9 |
| 20260510072027 | 48 | 9 | 0.9 | 4.3 | 0.00 | 0.00 | 0.00 | 81 | 1012.0 |
| 20260510071542 | 48 | 9 | 1.7 | 6.1 | 0.00 | 0.00 | 0.00 | 80 | 1011.9 |
| 20260510071027 | 49 | 9 | 2.6 | 6.1 | 0.00 | 0.00 | 0.00 | 80 | 1011.8 |
| 20260510070530 | 49 | 355 | 2.6 | 7.0 | 0.00 | 0.00 | 0.00 | 80 | 1011.8 |
| 20260510070043 | 49 | 9 | 2.6 | 7.0 | 0.00 | 0.00 | 0.00 | 80 | 1011.9 |
| 20260510065531 | 49 | 355 | 3.5 | 7.8 | 0.00 | 0.00 | 0.00 | 80 | 1011.8 |
| 20260510065030 | 50 | 349 | 4.3 | 9.6 | 0.00 | 0.00 | 0.00 | 79 | 1011.6 |
| 20260510064540 | 50 | 348 | 5.2 | 11.3 | 0.00 | 0.00 | 0.00 | 80 | 1011.6 |
| 20260510064028 | 50 | 350 | 6.1 | 12.2 | 0.00 | 0.00 | 0.00 | 80 | 1011.7 |
| 20260510063528 | 50 | 351 | 6.1 | 13.0 | 0.00 | 0.00 | 0.00 | 81 | 1011.5 |
| 20260510063046 | 51 | 355 | 7.8 | 13.0 | 0.00 | 0.00 | 0.00 | 81 | 1011.4 |
| 20260510062528 | 51 | 360 | 8.7 | 17.4 | 0.00 | 0.00 | 0.00 | 82 | 1011.3 |
| 20260510062028 | 52 | 331 | 7.8 | 17.4 | 0.00 | 0.00 | 0.00 | 83 | 1011.2 |
| 20260510061545 | 52 | 360 | 10.4 | 17.4 | 0.00 | 0.00 | 0.00 | 85 | 1011.1 |
| 20260510061027 | 53 | 28 | 9.6 | 17.4 | 0.00 | 0.00 | 0.00 | 87 | 1010.9 |
| 20260510060528 | 54 | 332 | 6.1 | 13.0 | 0.00 | 0.00 | 0.00 | 89 | 1010.9 |
| 20260510060051 | 54 | 314 | 2.6 | 13.0 | 0.00 | 0.00 | 0.00 | 90 | 1010.8 |
| 20260510055529 | 54 | 317 | 7.0 | 13.0 | 0.00 | 0.00 | 0.00 | 90 | 1010.5 |
| 20260510055028 | 54 | 323 | 1.7 | 4.3 | 0.00 | 0.00 | 0.00 | 88 | 1010.6 |
| 20260510054545 | 54 | 285 | 0.9 | 2.6 | 0.00 | 0.00 | 0.00 | 88 | 1010.4 |
| 20260510054028 | 54 | 0 | 0.0 | 0.9 | 0.00 | 0.00 | 0.00 | 88 | 1010.3 |
| 20260510053527 | 55 | 0 | 0.0 | 1.7 | 0.00 | 0.00 | 0.00 | 88 | 1010.3 |
| 20260510053042 | 55 | 0 | 0.0 | 4.3 | 0.00 | 0.00 | 0.00 | 87 | 1010.2 |
| 20260510052527 | 55 | 0 | 0.0 | 5.2 | 0.00 | 0.00 | 0.00 | 87 | 1010.3 |
| 20260510052027 | 55 | 286 | 1.7 | 8.7 | 0.00 | 0.00 | 0.00 | 88 | 1010.0 |
| 20260510051559 | 55 | 278 | 4.3 | 11.3 | 0.00 | 0.00 | 0.00 | 88 | 1010.0 |
| 20260510051028 | 55 | 288 | 7.0 | 11.3 | 0.00 | 0.00 | 0.00 | 90 | 1009.8 |
| 20260510050527 | 54 | 250 | 4.3 | 10.4 | 0.00 | 0.00 | 0.00 | 90 | 1009.8 |
| 20260510050042 | 54 | 326 | 3.5 | 8.7 | 0.00 | 0.00 | 0.00 | 90 | 1009.9 |
| 20260510045531 | 54 | 284 | 0.9 | 5.2 | 0.00 | 0.00 | 0.00 | 89 | 1009.7 |
| 20260510045027 | 54 | 190 | 2.6 | 6.1 | 0.00 | 0.00 | 0.00 | 89 | 1009.4 |
| 20260510044538 | 54 | 177 | 2.6 | 7.0 | 0.00 | 0.00 | 0.00 | 90 | 1009.4 |
| 20260510044030 | 53 | 189 | 4.3 | 7.0 | 0.00 | 0.00 | 0.00 | 90 | 1009.2 |
| 20260510043528 | 53 | 169 | 4.3 | 6.1 | 0.00 | 0.00 | 0.00 | 90 | 1009.1 |
| 20260510043109 | 53 | 181 | 2.6 | 4.3 | 0.00 | 0.00 | 0.00 | 90 | 1009.1 |
| 20260510042528 | 53 | 184 | 2.6 | 4.3 | 0.00 | 0.00 | 0.00 | 88 | 1009.1 |
| 20260510042027 | 53 | 185 | 2.6 | 4.3 | 0.00 | 0.00 | 0.00 | 88 | 1009.0 |
| 20260510041549 | 53 | 186 | 2.6 | 4.3 | 0.00 | 0.00 | 0.00 | 89 | 1009.1 |
| 20260510041030 | 53 | 178 | 3.5 | 4.3 | 0.00 | 0.00 | 0.00 | 88 | 1009.0 |
| 20260510040530 | 53 | 185 | 2.6 | 4.3 | 0.00 | 0.00 | 0.00 | 88 | 1009.0 |
| 20260510040043 | 54 | 186 | 2.6 | 4.3 | 0.00 | 0.00 | 0.00 | 88 | 1008.9 |
| 20260510035528 | 54 | 186 | 2.6 | 4.3 | 0.00 | 0.00 | 0.00 | 87 | 1009.0 |
| 20260510035032 | 54 | 187 | 1.7 | 3.5 | 0.00 | 0.00 | 0.00 | 87 | 1008.9 |
| 20260510034545 | 54 | 187 | 0.9 | 2.6 | 0.00 | 0.00 | 0.00 | 87 | 1008.9 |
| 20260510034030 | 55 | 187 | 0.9 | 3.5 | 0.00 | 0.00 | 0.00 | 86 | 1008.8 |
| 20260510033527 | 55 | 187 | 1.7 | 5.2 | 0.00 | 0.00 | 0.00 | 86 | 1008.9 |
| 20260510033042 | 56 | 186 | 2.6 | 5.2 | 0.00 | 0.00 | 0.00 | 86 | 1008.9 |
| 20260510032528 | 56 | 198 | 2.6 | 6.1 | 0.00 | 0.00 | 0.00 | 85 | 1008.9 |
| 20260510032027 | 56 | 200 | 3.5 | 6.1 | 0.00 | 0.00 | 0.00 | 86 | 1008.9 |
| 20260510031619 | 57 | 200 | 2.6 | 5.2 | 0.00 | 0.00 | 0.00 | 86 | 1008.9 |
| 20260510031030 | 57 | 199 | 2.6 | 7.0 | 0.00 | 0.00 | 0.00 | 85 | 1008.9 |
| 20260510030531 | 57 | 189 | 3.5 | 7.0 | 0.00 | 0.00 | 0.00 | 84 | 1008.8 |
| 20260510030041 | 57 | 223 | 0.9 | 5.2 | 0.00 | 0.00 | 0.00 | 84 | 1008.7 |
| 20260510025528 | 58 | 314 | 0.9 | 6.1 | 0.00 | 0.00 | 0.00 | 84 | 1009.1 |
| 20260510025030 | 58 | 313 | 2.6 | 6.1 | 0.00 | 0.00 | 0.00 | 83 | 1008.9 |
| 20260510024545 | 58 | 240 | 1.7 | 9.6 | 0.00 | 0.00 | 0.00 | 82 | 1008.9 |
| 20260510024027 | 58 | 0 | 0.9 | 9.6 | 0.00 | 0.00 | 0.00 | 82 | 1008.8 |
| 20260510023527 | 58 | 210 | 4.3 | 10.4 | 0.00 | 0.00 | 0.00 | 83 | 1008.8 |
| 20260510023048 | 58 | 211 | 6.1 | 10.4 | 0.00 | 0.00 | 0.00 | 84 | 1009.0 |
| 20260510022529 | 57 | 212 | 2.6 | 6.1 | 0.00 | 0.00 | 0.00 | 85 | 1009.2 |
| 20260510022031 | 57 | 207 | 1.7 | 6.1 | 0.00 | 0.00 | 0.00 | 85 | 1009.1 |
| 20260510021546 | 57 | 215 | 2.6 | 6.1 | 0.00 | 0.00 | 0.00 | 85 | 1009.3 |
| 20260510021030 | 57 | 239 | 0.9 | 7.8 | 0.00 | 0.00 | 0.00 | 85 | 1008.8 |
| 20260510020527 | 57 | 248 | 2.6 | 13.0 | 0.00 | 0.00 | 0.00 | 86 | 1008.9 |
| 20260510020043 | 57 | 282 | 7.0 | 13.0 | 0.00 | 0.00 | 0.00 | 87 | 1009.0 |
| 20260510015530 | 56 | 254 | 2.6 | 7.0 | 0.00 | 0.00 | 0.00 | 88 | 1009.3 |
| 20260510015029 | 56 | 248 | 1.7 | 5.2 | 0.00 | 0.00 | 0.00 | 89 | 1009.2 |
| 20260510014541 | 55 | 195 | 3.5 | 5.2 | 0.00 | 0.00 | 0.00 | 89 | 1008.5 |
| 20260510014028 | 55 | 180 | 3.5 | 5.2 | 0.00 | 0.00 | 0.00 | 89 | 1008.1 |
| 20260510013532 | 55 | 182 | 2.6 | 5.2 | 0.00 | 0.00 | 0.00 | 88 | 1008.1 |
| 20260510013042 | 55 | 183 | 2.6 | 5.2 | 0.00 | 0.00 | 0.00 | 88 | 1008.0 |
| 20260510012528 | 55 | 192 | 2.6 | 3.5 | 0.00 | 0.00 | 0.00 | 87 | 1008.0 |
| 20260510012030 | 56 | 193 | 2.6 | 3.5 | 0.00 | 0.00 | 0.00 | 87 | 1007.9 |
| 20260510011554 | 56 | 208 | 2.6 | 3.5 | 0.00 | 0.00 | 0.00 | 88 | 1007.9 |
| 20260510011030 | 56 | 209 | 1.7 | 3.5 | 0.00 | 0.00 | 0.00 | 87 | 1007.9 |
| 20260510010528 | 56 | 221 | 1.7 | 3.5 | 0.00 | 0.00 | 0.00 | 87 | 1007.8 |
| 20260510005527 | 56 | 223 | 0.9 | 3.5 | 0.00 | 0.00 | 0.00 | 87 | 1007.7 |
| 20260510005027 | 56 | 223 | 0.9 | 4.3 | 0.00 | 0.00 | 0.00 | 86 | 1007.6 |
| 20260510004545 | 56 | 222 | 0.0 | 7.0 | 0.00 | 0.00 | 0.00 | 86 | 1007.5 |
| 20260510004032 | 56 | 222 | 0.9 | 7.0 | 0.00 | 0.00 | 0.00 | 86 | 1007.5 |
| 20260510003529 | 57 | 232 | 0.9 | 7.0 | 0.00 | 0.00 | 0.00 | 87 | 1007.5 |
| 20260510003042 | 57 | 237 | 1.7 | 7.0 | 0.00 | 0.00 | 0.00 | 87 | 1007.6 |
| 20260510002528 | 57 | 221 | 1.7 | 7.0 | 0.00 | 0.00 | 0.00 | 87 | 1007.7 |
| 20260510002031 | 57 | 241 | 0.9 | 7.8 | 0.00 | 0.00 | 0.00 | 87 | 1007.8 |
| 20260510001541 | 57 | 188 | 2.6 | 7.8 | 0.00 | 0.00 | 0.00 | 87 | 1007.8 |
| 20260510001028 | 56 | 192 | 1.7 | 7.0 | 0.00 | 0.00 | 0.00 | 88 | 1007.6 |
| 20260510000527 | 56 | 240 | 0.9 | 7.0 | 0.00 | 0.00 | 0.00 | 88 | 1007.7 |
| 20260510000050 | 56 | 209 | 2.6 | 7.0 | 0.00 | 0.00 | 0.00 | 88 | 1007.6 |
| 20260509235530 | 56 | 234 | 1.7 | 7.8 | 0.00 | 0.00 | 0.00 | 88 | 1007.7 |
| 20260509235030 | 56 | 229 | 2.6 | 7.8 | 0.00 | 0.00 | 0.00 | 89 | 1007.7 |
| 20260509234546 | 56 | 226 | 2.6 | 10.4 | 0.00 | 0.00 | 0.00 | 89 | 1007.6 |
| 20260509234029 | 56 | 204 | 3.5 | 10.4 | 0.00 | 0.00 | 0.00 | 89 | 1007.7 |
| 20260509233527 | 55 | 253 | 3.5 | 10.4 | 0.00 | 0.00 | 0.00 | 89 | 1007.9 |
| 20260509233047 | 55 | 240 | 3.5 | 13.0 | 0.00 | 0.00 | 0.00 | 89 | 1007.9 |
| 20260509232527 | 55 | 253 | 4.3 | 13.0 | 0.00 | 0.00 | 0.00 | 89 | 1007.7 |
| 20260509232027 | 55 | 261 | 5.2 | 13.0 | 0.00 | 0.00 | 0.00 | 89 | 1007.9 |
| 20260509231549 | 55 | 275 | 7.0 | 17.4 | 0.00 | 0.00 | 0.00 | 89 | 1007.9 |
| 20260509231029 | 56 | 267 | 9.6 | 17.4 | 0.00 | 0.00 | 0.00 | 88 | 1007.9 |
| 20260509230530 | 56 | 300 | 9.6 | 24.3 | 0.00 | 0.00 | 0.00 | 87 | 1007.6 |
| 20260509230041 | 57 | 323 | 13.0 | 30.4 | 0.00 | 0.00 | 0.00 | 85 | 1007.6 |
| 20260509225528 | 60 | 321 | 8.7 | 30.4 | 0.00 | 0.00 | 0.00 | 80 | 1006.5 |
| 20260509225029 | 62 | 286 | 13.9 | 30.4 | 0.00 | 0.00 | 0.00 | 74 | 1007.2 |
| 20260509224542 | 63 | 295 | 6.1 | 16.5 | 0.00 | 0.00 | 0.00 | 73 | 1006.4 |
| 20260509224028 | 64 | 254 | 6.1 | 16.5 | 0.00 | 0.00 | 0.00 | 69 | 1006.2 |
| 20260509223530 | 66 | 240 | 7.8 | 17.4 | 0.00 | 0.00 | 0.00 | 63 | 1006.2 |
| 20260509223047 | 68 | 225 | 10.4 | 23.5 | 0.00 | 0.00 | 0.00 | 63 | 1005.7 |
| 20260509222531 | 69 | 210 | 12.2 | 23.5 | 0.00 | 0.00 | 0.00 | 60 | 1005.5 |
| 20260509222029 | 69 | 241 | 12.2 | 20.0 | 0.00 | 0.00 | 0.00 | 60 | 1005.2 |
| 20260509221546 | 69 | 235 | 12.2 | 19.1 | 0.00 | 0.00 | 0.00 | 60 | 1005.2 |
| 20260509221030 | 69 | 198 | 8.7 | 21.7 | 0.00 | 0.00 | 0.00 | 60 | 1005.4 |
| 20260509220530 | 69 | 196 | 12.2 | 21.7 | 0.00 | 0.00 | 0.00 | 59 | 1005.4 |
| 20260509220048 | 69 | 211 | 10.4 | 22.6 | 0.00 | 0.00 | 0.00 | 58 | 1005.5 |
| 20260509215528 | 70 | 200 | 10.4 | 22.6 | 0.00 | 0.00 | 0.00 | 59 | 1005.4 |
| 20260509215025 | 70 | 218 | 13.0 | 22.6 | 0.00 | 0.00 | 0.00 | 57 | 1005.5 |
| 20260509214542 | 70 | 201 | 13.9 | 22.6 | 0.00 | 0.00 | 0.00 | 55 | 1005.3 |
| 20260509214025 | 70 | 218 | 10.4 | 21.7 | 0.00 | 0.00 | 0.00 | 59 | 1005.5 |
| 20260509213525 | 70 | 174 | 11.3 | 24.3 | 0.00 | 0.00 | 0.00 | 59 | 1005.2 |
| 20260509213057 | 70 | 192 | 15.6 | 24.3 | 0.00 | 0.00 | 0.00 | 58 | 1005.4 |
| 20260509212527 | 70 | 198 | 13.0 | 23.5 | 0.00 | 0.00 | 0.00 | 60 | 1005.2 |
| 20260509212028 | 70 | 165 | 14.8 | 24.3 | 0.00 | 0.00 | 0.00 | 59 | 1005.3 |
| 20260509211607 | 70 | 202 | 13.0 | 24.3 | 0.00 | 0.00 | 0.00 | 59 | 1005.2 |
| 20260509211028 | 70 | 196 | 13.9 | 21.7 | 0.00 | 0.00 | 0.00 | 60 | 1005.2 |
| 20260509210529 | 70 | 204 | 13.0 | 20.0 | 0.00 | 0.00 | 0.00 | 61 | 1005.4 |
| 20260509210041 | 70 | 211 | 12.2 | 18.2 | 0.00 | 0.00 | 0.00 | 61 | 1005.5 |
| 20260509205528 | 70 | 205 | 10.4 | 22.6 | 0.00 | 0.00 | 0.00 | 61 | 1005.7 |
| 20260509205025 | 70 | 210 | 13.0 | 22.6 | 0.00 | 0.00 | 0.00 | 61 | 1005.6 |
| 20260509204557 | 70 | 206 | 13.0 | 21.7 | 0.00 | 0.00 | 0.00 | 62 | 1005.9 |
| 20260509204028 | 70 | 221 | 12.2 | 20.0 | 0.00 | 0.00 | 0.00 | 61 | 1005.8 |
| 20260509203524 | 70 | 201 | 12.2 | 20.0 | 0.00 | 0.00 | 0.00 | 63 | 1005.8 |
| 20260509203052 | 70 | 202 | 9.6 | 21.7 | 0.00 | 0.00 | 0.00 | 62 | 1006.0 |
| 20260509202525 | 70 | 192 | 11.3 | 21.7 | 0.00 | 0.00 | 0.00 | 63 | 1006.0 |
| 20260509202025 | 70 | 188 | 10.4 | 20.0 | 0.00 | 0.00 | 0.00 | 64 | 1006.0 |
| 20260509201542 | 69 | 197 | 9.6 | 20.0 | 0.00 | 0.00 | 0.00 | 62 | 1006.1 |
| 20260509201024 | 69 | 187 | 12.2 | 20.0 | 0.00 | 0.00 | 0.00 | 63 | 1006.2 |
| 20260509200526 | 69 | 182 | 11.3 | 20.0 | 0.00 | 0.00 | 0.00 | 65 | 1006.3 |
| 20260509200042 | 69 | 214 | 11.3 | 20.0 | 0.00 | 0.00 | 0.00 | 63 | 1006.4 |
| 20260509195526 | 70 | 205 | 11.3 | 20.0 | 0.00 | 0.00 | 0.00 | 61 | 1006.4 |
| 20260509195025 | 69 | 168 | 12.2 | 22.6 | 0.00 | 0.00 | 0.00 | 63 | 1006.6 |
| 20260509194543 | 69 | 218 | 12.2 | 22.6 | 0.00 | 0.00 | 0.00 | 64 | 1006.7 |
| 20260509194024 | 69 | 200 | 11.3 | 20.9 | 0.00 | 0.00 | 0.00 | 64 | 1006.7 |
| 20260509193530 | 69 | 195 | 12.2 | 20.9 | 0.00 | 0.00 | 0.00 | 65 | 1006.8 |
| 20260509193047 | 69 | 199 | 8.7 | 18.2 | 0.00 | 0.00 | 0.00 | 66 | 1006.8 |
| 20260509192527 | 69 | 186 | 10.4 | 18.2 | 0.00 | 0.00 | 0.00 | 64 | 1006.8 |
| 20260509192027 | 68 | 202 | 10.4 | 18.2 | 0.00 | 0.00 | 0.00 | 65 | 1006.8 |
| 20260509191547 | 68 | 227 | 9.6 | 18.2 | 0.00 | 0.00 | 0.00 | 65 | 1006.9 |
| 20260509191030 | 68 | 222 | 9.6 | 18.2 | 0.00 | 0.00 | 0.00 | 66 | 1007.1 |
| 20260509190527 | 68 | 200 | 9.6 | 18.2 | 0.00 | 0.00 | 0.00 | 67 | 1007.0 |
| 20260509190047 | 68 | 219 | 12.2 | 19.1 | 0.00 | 0.00 | 0.00 | 65 | 1007.2 |
| 20260509185527 | 67 | 213 | 11.3 | 19.1 | 0.00 | 0.00 | 0.00 | 68 | 1007.4 |
| 20260509185027 | 67 | 200 | 9.6 | 18.2 | 0.00 | 0.00 | 0.00 | 69 | 1007.4 |
| 20260509184543 | 67 | 215 | 12.2 | 18.2 | 0.00 | 0.00 | 0.00 | 68 | 1007.5 |
| 20260509184027 | 67 | 200 | 11.3 | 20.0 | 0.00 | 0.00 | 0.00 | 69 | 1007.4 |
| 20260509183533 | 67 | 222 | 12.2 | 20.0 | 0.00 | 0.00 | 0.00 | 67 | 1007.5 |
| 20260509183042 | 67 | 204 | 10.4 | 18.2 | 0.00 | 0.00 | 0.00 | 71 | 1007.5 |
| 20260509182526 | 66 | 217 | 10.4 | 19.1 | 0.00 | 0.00 | 0.00 | 72 | 1007.6 |
| 20260509182026 | 66 | 211 | 13.9 | 20.0 | 0.00 | 0.00 | 0.00 | 68 | 1007.7 |
| 20260509181545 | 66 | 198 | 9.6 | 20.0 | 0.00 | 0.00 | 0.00 | 70 | 1007.5 |
| 20260509181029 | 66 | 192 | 11.3 | 20.9 | 0.00 | 0.00 | 0.00 | 69 | 1007.6 |
| 20260509180528 | 66 | 210 | 12.2 | 20.9 | 0.00 | 0.00 | 0.00 | 71 | 1007.4 |
| 20260509180042 | 65 | 213 | 11.3 | 19.1 | 0.00 | 0.00 | 0.00 | 70 | 1007.3 |
| 20260509175527 | 66 | 213 | 7.8 | 16.5 | 0.00 | 0.00 | 0.00 | 70 | 1007.4 |
| 20260509175027 | 66 | 186 | 11.3 | 16.5 | 0.00 | 0.00 | 0.00 | 69 | 1007.4 |
| 20260509174542 | 66 | 183 | 7.8 | 14.8 | 0.00 | 0.00 | 0.00 | 72 | 1007.3 |
| 20260509174030 | 66 | 209 | 7.8 | 17.4 | 0.00 | 0.00 | 0.00 | 71 | 1007.5 |
| 20260509173527 | 65 | 229 | 7.8 | 22.6 | 0.00 | 0.00 | 0.00 | 73 | 1007.4 |
| 20260509173043 | 65 | 180 | 9.6 | 22.6 | 0.00 | 0.00 | 0.00 | 73 | 1007.5 |
| 20260509172530 | 65 | 201 | 9.6 | 20.0 | 0.00 | 0.00 | 0.00 | 73 | 1007.6 |
| 20260509172030 | 65 | 205 | 10.4 | 16.5 | 0.00 | 0.00 | 0.00 | 73 | 1007.7 |
| 20260509171541 | 64 | 213 | 9.6 | 16.5 | 0.00 | 0.00 | 0.00 | 72 | 1007.8 |
| 20260509171029 | 64 | 224 | 7.8 | 15.6 | 0.00 | 0.00 | 0.00 | 72 | 1007.8 |
| 20260509170526 | 64 | 236 | 7.8 | 15.6 | 0.00 | 0.00 | 0.00 | 74 | 1007.9 |
| 20260509170041 | 65 | 237 | 7.0 | 14.8 | 0.00 | 0.00 | 0.00 | 73 | 1007.8 |
| 20260509165530 | 65 | 248 | 4.3 | 12.2 | 0.00 | 0.00 | 0.00 | 76 | 1007.8 |
| 20260509165030 | 64 | 254 | 4.3 | 13.9 | 0.00 | 0.00 | 0.00 | 75 | 1007.7 |
| 20260509164548 | 64 | 216 | 8.7 | 13.9 | 0.00 | 0.00 | 0.00 | 73 | 1007.7 |
| 20260509164027 | 63 | 193 | 7.0 | 13.9 | 0.00 | 0.00 | 0.00 | 75 | 1007.6 |
| 20260509163527 | 63 | 199 | 7.8 | 16.5 | 0.00 | 0.00 | 0.00 | 75 | 1007.6 |
| 20260509163056 | 62 | 219 | 9.6 | 16.5 | 0.00 | 0.00 | 0.00 | 75 | 1007.5 |
| 20260509162527 | 62 | 200 | 7.8 | 13.9 | 0.00 | 0.00 | 0.00 | 75 | 1007.5 |
| 20260509162027 | 62 | 231 | 8.7 | 13.9 | 0.00 | 0.00 | 0.00 | 74 | 1007.7 |
| 20260509161542 | 62 | 186 | 7.8 | 14.8 | 0.00 | 0.00 | 0.00 | 74 | 1007.8 |
| 20260509161031 | 63 | 184 | 7.8 | 14.8 | 0.00 | 0.00 | 0.00 | 74 | 1007.9 |
| 20260509160528 | 62 | 197 | 8.7 | 14.8 | 0.00 | 0.00 | 0.00 | 77 | 1008.1 |
| 20260509160041 | 62 | 196 | 7.8 | 13.0 | 0.00 | 0.00 | 0.00 | 77 | 1008.1 |
| 20260509155527 | 62 | 223 | 5.2 | 10.4 | 0.00 | 0.00 | 0.00 | 77 | 1008.1 |
| 20260509155031 | 62 | 248 | 3.5 | 12.2 | 0.00 | 0.00 | 0.00 | 78 | 1008.2 |
| 20260509154541 | 61 | 221 | 5.2 | 13.9 | 0.00 | 0.00 | 0.00 | 77 | 1008.3 |
| 20260509154031 | 62 | 204 | 7.8 | 13.9 | 0.00 | 0.00 | 0.00 | 77 | 1008.2 |